EHI
0 0 0 0 0 0 0 0 0 0 0 0 0 0 0 0 0 0 0 0 0 0 0 0 0 0 0 0 0 0 0 0 0 0 0 0 0 0 0 0 0 0 0 0
0 0 0 0 0 0 0 0 0 0 0 0 0 0 0 0 0 0 0 0 0 0 0 0 0 0 0 0 0 0 0 0 0 0 0 0 0 0 0 0 0 0 0 0
0 0 0 0 0 0 0 0 0 0 0 0 0 0 0 0 0 0 0 0 0 0 0 0 0 0 0 0 0 0 0 0 0 0 0 0 0 0 0 0 0 0 0 0
0 0 0 0 0 0 0 0 0 0 0 0 0 0 0 0 0 0 0 0 0 0 0 0 0 0 0 0 0 0 0 0 0 0 0 0 0 0 0 0 0 0 0 0
0 0 0 0 0 0 0 0 0 0 0 0 0 0 0 0 0 0 0 0 0 0 0 0 0 0 0 0 0 0 0 0 0 0 0 0 0 0 0 0 0 0 0 0
0 0 0 0 0 0 0 0 0 0 0 0 0 0 0 0 0 0 0 0 0 0 0 0 0 0 0 0 0 0 0 0 0 0 0 0 0 0 0 0 0 0 0 0
0 0 0 0 0 0 0 0 0 0 0 0 0 0 0 0 0 0 0 0 0 0 0 0 0 0 0 0 0 0 0 0 0 0 0 0 0 0 0 0 0 0 0 0
0 0 0 0 0 0 0 0 0 0 0 0 0 0 0 0 0 0 0 0 0 0 0 0 0 0 0 0 0 0 0 0 0 0 0 0 0 0 0 0 0 0 0 0
0 0 0 0 0 0 0 0 0 0 0 0 0 0 0 0 0 0 0 0 0 0 0 0 0 0 0 0 0 0 0 0 0 0 0 0 0 0 0 0 0 0 0 0
0 0 0 0 0 0 0 0 0 0 0 0 0 0 0 0 0 0 0 0 0 0 0 0 0 0 0 0 0 0 0 0 0 0 0 0 0 0 0 0 0 0 0 0
0 0 0 0 0 0 0 0 0 0 0 0 0 0 0 0 0 0 0 0 0 0 0 0 0 0 0 0 0 0 0 0 0 0 0 0 0 0 0 0 0 0 0 0
0 0 0 0 0 0 0 0 0 0 0 0 0 0 0 0 0 0 0 0 0 0 0 0 0 0 0 0 0 0 0 0 0 0 0 0 0 0 0 0 0 0 0 0
0 0 0 0 0 0 0 0 0 0 0 0 0 0 0 0 0 0 0 0 0 0 0 0 0 0 0 0 0 0 0 0 0 0 0 0 0 0 0 0 0 0 0 0
0 0 0 0 0 0 0 0 0 0 0 0 0 0 0 0 0 0 0 0 0 0 0 0 0 0 0 0 0 0 0 0 0 0 0 0 0 0 0 0 0 0 0 0
0 0 0 0 0 0 0 0 0 0 0 0 0 0 0 0 0 0 0 0 0 0 0 0 0 0 0 0 0 0 0 0 0 0 0 0 0 0 0 0 0 0 0 0
0 0 0 0 0 0 0 0 0 0 0 0 0 0 0 0 0 0 0 0 0 0 0 0 0 0 0 0 0 0 0 0 0 0 0 0 0 0 0 0 0 0 0 0
0 0 0 0 0 0 0 0 0 0 0 0 0 0 0 0 0 0 0 0 0 0 0 0 0 0 0 0 0 0 0 0 0 0 0 0 0 0 0 0 0 0 0 0
0 0 0 0 0 0 0 0 0 0 0 0 0 0 0 0 0 0 0 0 0 0 0 0 0 0 0 0 0 0 0 0 0 0 0 0 0 0 0 0 0 0 0 0
0 0 0 0 0 0 0 0 0 0 0 0 0 0 0 0 0 0 0 0 0 0 0 0 0 0 0 0 0 0 0 0 0 0 0 0 0 0 0 0 0 0 0 0
0 0 0 0 0 0 0 0 0 0 0 0 0 0 0 0 0 0 0 0 0 0 0 0 0 0 0 0 0 0 0 0 0 0 0 0 0 0 0 0 0 0 0 0
0 0 0 0 0 0 0 0 0 0 0 0 0 0 0 0 0 0 0 0 0 0 0 0 0 0 0 0 0 0 0 0 0 0 0 0 0 0 0 0 0 0 0 0
0 0 0 0 0 0 0 0 0 0 0 0 0 0 0 0 0 0 0 0 0 0 0 0 0 0 0 0 0 0 0 0 0 0 0 0 0 0 0 0 0 0 0 0
0 0 0 0 0 0 0 0 0 0 0 0 0 0 0 0 0 0 0 0 0 0 0 0 0 0 0 0 0 0 0 0 0 0 0 0 0 0 0 0 0 0 0 0
0 0 0 0 0 0 0 0 0 0 0 0 0 0 0 0 0 0 0 0 0 0 0 0 0 0 0 0 0 0 0 0 0 0 0 0 0 0 0 0 0 0 0 0
0 0 0 0 0 0 0 0 0 0 0 0 0 0 0 0 0 0 0 0 0 0 0 0 0 0 0 0 0 0 0 0 0 0 0 0 0 0 0 0 0 0 0 0
0 0 0 0 0 0 0 0 0 0 0 0 0 0 0 0 0 0 0 0 0 0 0 0 0 0 0 0 0 0 0 0 0 0 0 0 0 0 0 0 0 0 0 0
Wind_Speed
3 5 1 2 2 2 2 2 2 4 2 0 4 7 8 4 4 6 6 6 6 6 4 4 5 4 4 3 3 2 1 0 1 1 1 1 1 2 2 2 3 3 3 4
5 2 2 1 1 2 1 1 1 3 1 1 3 7 7 5 6 8 9 9 8 6 4 4 4 4 4 3 3 2 1 1 0 0 0 0 1 1 1 2 3 3 3 4
2 2 2 2 3 3 2 1 1 1 4 3 2 6 4 4 3 3 5 7 7 9 8 7 6 5 4 4 4 3 3 2 1 0 1 1 1 1 2 2 3 3 3 3
1 2 2 3 2 1 1 2 0 1 2 3 2 3 6 3 3 4 5 6 7 7 7 7 6 5 5 5 3 3 3 2 1 1 1 1 0 1 2 2 2 4 4 4
2 2 2 2 1 1 2 2 1 0 1 2 1 2 8 2 4 6 6 7 7 7 8 8 7 7 5 4 4 3 2 2 1 1 1 1 1 2 2 2 3 4 3 4
2 1 0 1 2 1 1 3 4 4 3 2 3 3 7 4 6 5 5 6 6 7 6 6 5 5 4 3 3 3 3 2 2 2 1 2 2 2 2 3 3 3 3 3
4 3 2 1 2 4 4 5 4 5 3 5 2 3 9 7 5 6 7 7 6 6 6 6 6 5 5 4 4 3 3 3 2 2 2 2 2 2 3 3 3 3 3 3
1 4 2 1 1 1 0 3 4 3 3 5 3 5 8 5 3 2 3 4 5 5 5 6 6 6 6 6 5 4 4 4 3 3 3 2 2 2 2 2 2 3 3 3
1 4 3 1 1 2 1 1 3 4 0 3 6 7 8 2 2 1 2 3 4 4 5 6 6 6 6 6 6 6 5 4 4 4 3 3 2 2 3 3 2 2 3 3
2 2 4 2 1 1 2 3 3 3 2 3 5 5 5 4 3 2 3 4 4 4 4 5 5 5 5 5 5 4 5 5 4 4 3 2 3 3 3 2 3 3 3 3
2 2 4 2 3 3 2 2 2 2 3 3 4 8 6 5 4 5 5 5 5 5 5 5 4 4 4 4 4 4 4 4 4 3 3 3 2 2 2 3 3 3 3 3
2 3 3 5 4 2 4 4 5 3 3 3 3 10 5 3 3 4 4 4 4 4 4 4 4 4 3 4 4 4 4 4 4 4 3 3 3 3 3 3 3 3 3 3
3 3 2 5 3 1 2 3 4 3 2 4 5 10 4 1 2 2 3 4 4 4 4 3 3 3 4 4 4 5 5 5 5 4 4 3 3 3 3 4 3 3 3 4
3 3 6 7 6 3 4 5 4 4 4 6 10 11 9 7 6 6 5 5 5 5 4 4 4 4 4 4 4 5 5 5 4 4 4 4 4 4 4 4 3 3 3 4
3 4 5 8 8 5 8 11 9 10 10 10 11 11 14 9 8 7 6 5 4 4 5 5 4 4 4 4 4 4 4 4 4 4 5 5 5 4 3 3 4 4 4 4
2 3 3 6 6 7 11 14 14 13 11 13 13 17 12 8 5 6 6 5 5 5 5 5 4 4 5 5 5 4 5 5 4 5 6 5 4 4 4 4 4 3 4 4
4 4 2 5 4 5 11 11 12 8 9 9 13 13 5 4 6 6 6 5 6 6 5 5 5 5 5 5 5 5 5 4 4 5 5 4 4 4 4 4 3 4 4 4
6 5 3 3 2 9 9 3 6 7 8 8 7 6 5 6 6 5 5 5 5 4 4 5 5 5 5 5 5 5 4 4 5 5 5 5 5 5 4 3 4 4 3 3
8 7 4 3 5 10 9 4 4 5 6 5 7 7 5 3 3 5 4 4 5 5 5 5 5 5 5 5 5 4 4 4 5 6 6 5 5 5 4 4 5 4 3 3
4 5 5 4 5 9 7 2 1 2 5 3 3 5 4 1 3 6 4 4 4 4 4 4 4 4 4 5 4 4 5 5 7 7 7 5 5 5 5 5 4 3 3 3
4 4 7 7 8 10 7 2 2 3 6 3 3 4 3 4 6 5 5 4 4 4 4 4 3 4 5 4 3 4 5 7 7 6 5 5 5 5 5 4 3 3 3 3
9 7 7 6 8 11 4 4 6 7 4 3 4 4 4 5 6 5 5 5 5 5 4 4 4 5 5 4 4 5 7 7 5 4 5 5 5 4 4 4 3 3 3 3
8 10 7 10 11 6 4 6 5 3 4 4 4 5 5 5 6 6 5 5 5 5 5 4 4 5 5 4 5 6 7 5 4 4 5 5 4 4 4 4 4 3 3 3
6 4 4 6 9 7 7 7 6 6 6 6 5 6 5 7 7 6 6 6 5 5 5 4 4 5 6 5 5 6 5 4 4 5 5 4 4 4 3 3 3 3 4 4
7 4 5 9 9 7 7 7 7 6 6 6 6 6 6 7 7 7 6 6 6 5 5 4 5 6 7 6 6 5 4 4 4 4 4 4 4 4 4 4 4 5 5 5
7 8 9 11 9 7 9 6 6 6 7 7 6 7 6 6 7 7 7 6 6 5 5 5 5 6 6 6 6 5 4 4 4 4 4 4 3 3 3 3 3 5 5 7
Wind_Direction
26 61 48 240 211 204 183 174 248 266 281 247 236 257 265 240 207 216 211 196 190 191 184 164 157 152 141 137 133 136 125 66 54 48 34 17 355 344 347 343 352 351 347 348
38 16 274 263 339 29 93 135 290 306 327 283 275 276 266 241 214 207 202 198 194 183 172 168 164 160 160 163 162 162 174 176 57 86 183 201 260 297 303 327 347 345 345 344
117 265 310 35 14 28 15 190 227 275 341 7 2 310 286 271 228 205 199 195 190 183 183 184 179 178 173 182 184 181 192 192 209 175 75 33 19 352 342 341 336 332 334 334
23 328 35 51 12 38 297 297 237 91 44 315 51 297 287 269 265 227 211 197 196 190 186 187 184 183 186 193 189 187 189 193 206 164 136 153 207 270 279 299 304 316 323 323
330 348 40 44 321 338 245 303 313 83 99 337 313 207 282 283 251 244 222 207 204 196 190 190 190 190 190 185 183 191 191 200 204 188 186 195 244 257 283 301 309 316 318 320
288 305 45 230 300 290 323 23 31 45 69 300 240 184 274 242 229 241 223 211 204 194 190 189 185 174 177 179 180 185 186 205 212 208 213 206 231 264 291 305 311 313 314 321
343 336 339 23 23 13 48 68 30 4 4 256 256 206 252 256 242 222 210 207 201 190 183 180 179 182 186 188 191 188 189 213 221 220 230 231 233 240 255 279 294 305 313 315
8 305 302 341 147 165 300 128 150 200 240 285 306 237 256 277 282 226 182 176 180 187 189 189 193 193 197 198 194 192 198 215 216 216 231 238 236 232 250 262 271 283 291 296
166 272 307 281 224 153 144 174 172 138 223 276 278 285 298 288 356 57 128 148 178 193 199 202 202 200 200 201 202 202 205 215 214 214 215 225 232 233 250 264 268 275 285 296
156 268 295 308 14 311 173 156 103 122 182 269 287 273 256 264 253 236 199 197 209 208 213 217 212 208 208 209 211 208 209 213 215 211 214 222 229 236 247 258 266 273 282 293
147 179 305 328 217 209 168 160 141 147 176 188 267 269 234 231 222 212 218 213 208 212 217 220 222 220 215 214 212 213 216 218 221 217 214 219 231 238 247 255 263 268 276 285
149 134 262 262 255 223 194 192 159 169 234 205 223 267 272 240 226 207 220 226 225 222 221 222 224 223 220 222 222 222 222 221 221 215 211 218 225 232 246 257 265 268 273 279
144 129 341 332 329 290 231 213 185 160 166 195 213 262 300 329 294 263 253 256 255 242 232 229 225 226 230 232 231 229 226 224 222 210 210 220 224 229 243 255 263 266 270 278
132 173 194 218 231 208 244 246 215 177 204 227 230 254 280 285 281 281 273 257 250 241 236 231 232 236 238 238 236 235 237 229 221 211 212 221 227 229 238 250 258 262 264 271
135 221 235 251 259 250 249 250 232 222 218 226 246 247 259 257 256 261 263 265 260 253 242 232 233 240 243 249 251 244 243 236 220 214 219 227 229 228 236 248 254 260 263 267
168 229 257 272 262 256 262 254 240 237 233 239 256 265 262 267 259 259 260 256 252 247 243 241 241 243 244 245 248 249 248 240 220 219 226 227 225 230 237 245 252 260 267 271
192 191 238 270 296 315 267 240 219 216 216 210 234 249 269 274 265 256 252 244 240 245 247 242 242 241 244 244 239 240 241 236 225 228 231 225 223 229 235 242 249 256 263 271
184 178 209 266 322 248 247 234 200 215 239 224 236 255 255 253 263 256 241 230 240 250 251 252 251 250 250 245 243 240 237 230 228 231 233 228 222 229 233 235 243 252 261 258
191 179 197 213 248 273 283 263 197 199 259 227 232 257 272 285 318 293 261 233 234 244 248 248 247 250 254 253 247 238 237 233 230 232 233 230 221 224 227 235 243 248 251 248
155 166 187 201 229 248 252 257 194 117 274 249 224 255 273 322 303 278 270 264 259 256 254 254 256 258 257 259 246 234 239 235 236 236 233 228 219 219 225 233 239 241 235 241
153 183 207 218 239 261 255 242 117 193 251 259 235 238 235 224 235 257 279 276 262 259 263 262 259 259 257 260 249 245 246 244 245 242 235 227 220 221 225 229 234 235 232 238
180 185 199 194 219 250 222 152 189 226 261 258 245 235 238 246 259 265 270 271 273 273 272 265 263 269 266 254 239 249 254 257 253 238 231 228 224 224 223 222 229 220 217 232
203 197 193 201 220 242 199 209 236 245 249 246 240 249 243 250 259 264 266 269 270 269 268 260 256 267 270 255 235 246 258 261 252 236 232 231 226 224 217 213 215 212 213 223
240 208 209 246 258 262 263 264 268 255 246 247 246 254 247 250 256 264 267 270 271 269 268 263 261 266 271 266 252 247 257 254 242 239 236 227 220 226 223 218 209 208 214 222
222 198 227 256 271 284 267 250 255 265 264 266 265 258 250 248 256 256 261 265 265 268 266 258 255 260 266 269 266 261 255 244 241 241 234 226 221 220 221 224 219 217 220 217
211 213 226 251 248 245 266 266 265 266 265 260 263 268 260 243 249 255 258 260 260 263 264 264 262 262 266 266 267 265 254 237 233 241 233 223 218 217 217 224 244 241 237 245